Location: Ballingbuur
(53.0000°N, 5.7667°E)
Time: 21:20:39
(UTC+00:00)

Aureole 2 Rocket - Pass Details

Date: 29 November 2020
Orbit: 289 x 388 km, 73.9° (Epoch: 24 January)

Event Time Altitude Azimuth Distance (km) Brightness Sun altitude
Rises 05:19:05 0° 182° (S) 1,958 5.8 -18.0°
Reaches altitude 10° 05:21:05 10° 169° (S) 1,143 4.7 -17.7°
Maximum altitude 05:23:15 26° 108° (ESE) 617 3.9 -17.4°
Drops below altitude 10° 05:25:21 11° 48° (NE) 1,132 4.9 -17.1°
Sets 05:27:29 0° 35° (NE) 2,000 6.0 -16.7°
